Weather in Butovo

Russia / Moscow Oblast     55°32′45″N   37°35′24″E
В апреле 2022 года жителям России запретили посещать сайт meteo.paraplan.net по решению Генеральной прокуратуры. Аудитория сайта уменьшилась в 10 раз. Владельцы сайта не видят смысла в поддержке погодного сервера в таких условиях. Сайт будет закрыт в октябре.
temp.,
°C
wind,
m/s
gust,
m/s
humid.,
%
clouds,
%
prec.,
mm/h
press.,
hPa
HPBL,
m
4 october, tue
tue400:00+10sse9177797 0.1 10021349
03:00+10sse91774100 0.1 10031405
06:00+10sse8157897 0.0 10041265
09:00+10sse81674100 0.0 10051172
12:00+10ssw81480100 0.3 10061508
15:00+9s71275100 0.6 10091068
18:00+8sse51080100 0.0 1009634
21:00+7s71181100 0.4 10091147
5 october, wed
wed500:00+7s6985100 0.4 1010938
03:00+7s4885100 0.5 10101010
06:00+6s3591100 0.8 10101029
09:00+6ssw3592100 2.4 1010554
12:00+6w4689100 0.8 1012487
15:00+7w5680100 1.0 1014812
18:00+6w4883100 0.0 1015649
21:00+5w3788100 0.1 1016529
6 october, thu
thu600:00+5w379344 0.1 1017255
03:00+4w359632 0.1 1017153
06:00+3w35969 0.0 1018107
09:00+6w248426 0.0 1018209
12:00+9wsw347573 0.0 1018560
15:00+11wsw357892 0.0 1018660
18:00+9ssw389474 0.0 1017280
21:00+9sw4119573 0.0 1017330
7 october, fri
fri700:00+9sw51295100 0.0 1016334
03:00+9wsw5139527 0.0 1016368
06:00+11wnw5128920 0.0 1017633
09:00+10wnw6128237 0.0 1019705
12:00+10wnw5975100 0.0 10221107
15:00+12wnw5969100 0.1 10221191
18:00+10w410800 0.0 1023386
21:00+8wsw410890 0.0 1025283
8 october, sat
sat800:00+7wsw39920 0.0 1025190
03:00+6wsw37943 0.0 1025149
06:00+6sw38945 0.0 1025163
09:00+8sw49875 0.0 1025310
12:00+13sw576827 0.0 1023712
15:00+14sw586024 0.0 1021980
18:00+11ssw4107954 0.0 1020329
21:00+9ssw51484100 0.0 1019430